Skagway, AK

4:18 AM AKDT on July 28, 2017 (GMT -0800)
Skagway

Weather History for PAGY - September, 2012

Change the Weather History Date:

Sunday, September 23, 2012

  Actual Average Record
Temperature  
Mean Temperature 55 °F -  
Max Temperature 57 °F 52 °F 68 °F (1965)
Min Temperature 53 °F 42 °F 24 °F (1970)
Degree Days  
Heating Degree Days 10    
Growing Degree Days 5 (Base 50)    
Moisture  
Dew Point 48 °F    
Average Humidity 76    
Maximum Humidity 86    
Minimum Humidity 70    
Precipitation  
Precipitation 0.04 in - - ()
Sea Level Pressure  
Sea Level Pressure 29.96 in    
Wind  
Wind Speed 14 mph (SSW)    
Max Wind Speed 23 mph    
Max Gust Speed 33 mph    
Visibility 10 miles    
Events Rain    
Averages and records for this station are not official NWS values.
T = Trace of Precipitation, MM = Missing Value Source: NWS Daily Summary

Daily Weather History Graph

Daily Weather History Graph

Search for Another Location

Airport or City:

Trip Planner

Search our weather history database for the weather conditions in past years. The results will help you decide how hot, cold, wet, or windy it might be!

Date:

Astronomy

Sep. 23, 2012 Rise Set
Actual Time 6:49 AM AKDT 6:55 PM AKDT
Civil Twilight 6:08 AM AKDT 7:36 PM AKDT
Nautical Twilight 5:19 AM AKDT 8:25 PM AKDT
Astronomical Twilight 4:26 AM AKDT 9:17 PM AKDT
Moon 4:19 PM AKDT (9/23) No Moon Set
Length of Visible Light 13h 28m
Length of Day
12h 06m
First Quarter, 61% of the Moon is Illuminated
Sep 23
First Quarter
Sep 29
Full
Oct 7
Last Quarter
Oct 15
New
Oct 21
First Quarter

Hourly Weather History & Observations

Time (AKDT) Temp. Dew Point Humidity Pressure Visibility Wind Dir Wind Speed Gust Speed Precip Events Conditions
12:53 AM 54.0 °F 48.0 °F 80% 29.93 in 10.0 mi SSW 19.6 mph 27.6 mph 0.00 in   Overcast
1:53 AM 54.0 °F 48.0 °F 80% 29.93 in 10.0 mi SSW 23.0 mph 33.4 mph N/A   Overcast
2:53 AM 53.1 °F 48.0 °F 83% 29.95 in 10.0 mi SSW 17.3 mph 26.5 mph 0.01 in Rain Light Rain
3:53 AM 53.1 °F 48.0 °F 83% 29.96 in 10.0 mi Variable 6.9 mph 17.3 mph 0.01 in   Overcast
4:53 AM 53.1 °F 48.9 °F 86% 29.96 in 10.0 mi Variable 4.6 mph 17.3 mph 0.00 in   Overcast
5:53 AM 55.0 °F 48.0 °F 77% 29.96 in 10.0 mi SSE 8.1 mph 18.4 mph 0.00 in   Overcast
6:53 AM 55.9 °F 46.9 °F 72% 29.95 in 10.0 mi SSW 10.4 mph 23.0 mph 0.00 in   Overcast
7:53 AM 55.0 °F 46.9 °F 74% 29.96 in 10.0 mi Calm Calm - N/A   Overcast
8:53 AM 54.0 °F 48.0 °F 80% 29.96 in 10.0 mi Variable 3.5 mph - N/A   Overcast
9:53 AM 55.9 °F 48.0 °F 75% 29.96 in 10.0 mi Variable 4.6 mph - N/A   Overcast
10:53 AM 57.9 °F 48.0 °F 70% 29.95 in 10.0 mi SSW 13.8 mph 21.9 mph N/A   Overcast
11:53 AM 57.0 °F 48.0 °F 72% 29.93 in 10.0 mi SSW 15.0 mph 24.2 mph 0.00 in   Overcast
12:53 PM 55.0 °F 48.9 °F 80% 29.94 in 8.0 mi SSW 16.1 mph 26.5 mph 0.01 in Rain Light Rain
1:53 PM 55.9 °F 48.0 °F 75% 29.94 in 10.0 mi SSW 17.3 mph 29.9 mph 0.00 in   Overcast
2:53 PM 57.9 °F 48.0 °F 70% 29.93 in 10.0 mi SSW 17.3 mph 25.3 mph N/A   Mostly Cloudy
3:53 PM 55.9 °F 48.9 °F 77% 29.94 in 10.0 mi SSW 20.7 mph 28.8 mph 0.01 in   Overcast
4:53 PM 57.0 °F 48.0 °F 72% 29.94 in 10.0 mi SSW 16.1 mph 27.6 mph N/A   Overcast
5:53 PM 55.0 °F 48.0 °F 77% 29.96 in 7.0 mi SSW 16.1 mph 25.3 mph 0.00 in Rain Light Rain
6:53 PM 54.0 °F 48.0 °F 80% 29.96 in 10.0 mi SSW 16.1 mph 23.0 mph 0.00 in Rain Light Rain
7:53 PM 55.0 °F 48.0 °F 77% 29.96 in 10.0 mi South 17.3 mph 24.2 mph 0.00 in   Overcast
8:53 PM 55.0 °F 46.0 °F 72% 29.97 in 10.0 mi SSW 16.1 mph - N/A   Mostly Cloudy
9:53 PM 55.0 °F 46.0 °F 72% 29.99 in 10.0 mi SSW 16.1 mph 25.3 mph N/A   Overcast
10:53 PM 54.0 °F 46.0 °F 75% 29.99 in 10.0 mi SSW 15.0 mph 25.3 mph N/A   Overcast
11:53 PM 53.6 °F 44.6 °F 72% 30.00 in 10.0 mi SSW 15.0 mph - N/A   Overcast